Theta_e
339 339 340 341 341 341 341 341 340 341 341 341 340 340 340 340 340 340 340 340 341 340 340 341 342 342 341 341 337 342 341 343 342 342 341 341 343 342 341 340 338 339 339 339 339 339 338 338 337 337 339 339 340 341 341 342 342 341 341 340 337 339 338 337 333 332 338 343 342 339 338 340 338 337 334 333 333 337 336 341 340 340 339 338 333
341 341 340 340 340 341 341 341 340 340 339 339 340 339 340 341 341 341 340 341 341 340 340 340 343 342 339 342 342 339 338 342 342 342 340 340 342 342 342 341 339 338 339 337 338 338 339 339 338 338 340 339 340 340 341 341 341 340 340 339 337 337 342 339 335 332 332 340 339 338 341 340 336 335 333 333 333 331 335 336 339 339 336 336 335
342 341 340 341 341 340 340 338 337 338 338 339 338 339 339 341 341 340 340 340 341 340 341 342 342 338 342 342 341 341 342 342 343 342 342 341 341 343 342 341 339 339 338 337 337 338 338 339 338 339 341 340 340 341 338 339 341 339 340 340 340 339 341 343 338 334 332 333 338 337 337 339 337 335 335 334 334 333 330 332 336 336 336 336 333
331 330 334 336 337 339 338 338 337 336 336 337 338 338 339 340 341 341 340 340 339 340 342 343 342 343 341 340 340 341 342 341 342 343 342 341 341 340 341 342 341 340 338 337 337 337 336 336 338 340 341 339 339 337 336 338 340 339 340 340 342 341 342 343 343 338 336 333 336 336 338 337 338 336 335 335 333 330 331 333 336 334 332 334 335
331 332 331 331 334 337 337 337 336 336 336 336 337 338 338 338 338 338 340 340 339 340 341 342 343 342 342 340 340 340 342 342 342 342 341 341 339 339 339 339 340 339 339 338 337 338 337 336 337 338 340 339 339 339 338 339 338 339 339 339 340 341 342 341 342 342 337 334 336 339 337 337 339 338 335 332 331 332 334 331 332 331 333 333 333
331 331 332 332 332 333 336 337 337 337 337 337 337 338 338 338 337 337 338 339 339 339 339 340 340 340 341 341 340 341 341 342 341 340 339 341 342 341 340 340 340 339 339 339 339 338 338 337 338 338 339 338 338 339 339 338 338 338 339 339 340 341 341 341 342 341 340 336 337 331 334 330 335 336 335 333 331 330 329 330 331 331 330 332 329
332 331 331 332 333 334 336 336 338 338 337 337 338 337 337 338 337 337 338 338 338 338 338 338 339 339 340 341 340 341 341 341 342 341 340 341 341 341 342 342 340 340 340 340 340 340 339 338 339 341 340 339 338 337 337 338 338 338 339 339 341 340 340 340 340 340 339 336 336 335 331 335 336 333 333 334 333 331 329 328 326 329 331 331 328
329 330 330 331 331 333 336 336 337 337 337 337 338 338 337 337 337 338 338 338 338 337 337 337 339 339 340 340 342 342 341 340 339 340 341 342 343 343 344 344 342 342 342 341 341 341 341 341 341 341 341 341 341 341 340 337 336 332 336 340 341 340 339 339 339 338 337 337 335 335 332 332 335 335 334 333 331 331 331 328 325 325 329 331 330
324 326 329 331 331 332 334 336 336 336 335 335 335 336 336 337 338 338 338 338 338 338 338 338 338 338 339 340 340 341 341 341 340 341 340 342 343 343 343 343 343 343 343 343 343 343 343 343 343 343 343 340 339 339 339 338 338 334 340 340 340 340 340 339 338 336 336 336 334 336 333 333 335 334 330 329 328 328 331 331 327 328 328 328 329
323 323 324 328 330 331 332 335 335 335 334 335 335 335 335 336 336 337 337 337 337 338 338 338 338 337 338 339 340 341 341 342 340 333 332 342 342 343 344 344 343 343 342 342 342 342 343 344 344 342 341 339 338 331 325 327 331 338 342 341 340 339 337 338 336 336 335 333 333 333 330 330 332 334 332 333 333 333 330 330 327 327 328 327 328
322 323 323 324 327 330 330 330 334 334 334 335 335 334 334 335 335 335 336 336 337 337 337 337 337 338 338 339 340 341 341 342 324 314 316 318 339 343 343 343 343 342 340 339 339 340 342 343 344 342 341 339 338 324 321 319 320 320 322 326 333 337 338 338 337 337 334 333 333 333 333 333 333 336 336 334 333 331 330 330 328 327 325 322 321
319 320 321 322 324 327 328 329 329 331 332 333 334 334 335 334 334 335 335 335 336 337 337 337 337 338 339 339 340 340 340 332 309 308 308 309 320 343 343 342 342 341 340 339 338 338 339 340 342 343 342 343 343 340 329 319 315 315 313 315 316 316 313 335 340 334 335 334 333 337 334 334 335 337 336 335 332 332 331 330 329 327 326 323 322
317 317 318 317 320 323 323 324 327 328 328 330 331 333 333 335 335 335 335 336 336 335 336 337 336 337 338 339 340 340 341 318 305 306 307 306 307 324 343 344 342 342 342 340 339 338 338 339 339 341 342 340 340 340 340 337 320 316 318 317 317 312 308 304 307 334 338 336 336 334 335 335 334 335 338 336 336 333 331 328 329 328 327 325 325
316 316 316 315 318 320 321 321 322 324 327 328 328 329 329 330 334 336 335 336 334 335 336 335 336 337 338 338 339 341 342 318 305 306 306 303 304 310 341 343 343 343 342 342 341 340 339 339 338 340 342 343 342 343 343 340 340 335 333 335 337 334 317 308 308 307 320 337 339 336 339 339 335 337 339 339 337 332 330 328 330 329 328 327 329
318 317 316 316 316 316 317 318 318 320 323 325 327 327 328 330 330 331 334 335 334 334 333 333 336 337 338 338 337 337 341 307 303 303 303 302 301 305 340 342 343 343 343 343 343 342 341 340 341 341 342 343 344 342 344 344 343 339 338 339 339 340 340 339 339 339 338 338 340 337 337 341 342 341 343 342 342 337 335 333 332 331 331 332 331
315 317 316 317 316 314 316 313 315 316 317 320 322 324 326 327 327 329 329 331 334 335 337 337 336 336 337 337 336 336 339 303 301 301 302 300 299 324 336 338 340 342 343 343 344 343 343 342 342 340 341 341 335 319 329 344 344 342 340 341 340 340 341 338 326 328 345 347 343 340 338 345 331 341 343 343 341 341 336 335 334 332 329 326 324
310 312 311 311 312 314 315 311 311 312 313 315 317 319 320 322 325 328 327 328 328 330 333 334 337 337 336 336 334 330 333 311 298 301 300 298 306 334 336 337 338 340 342 344 343 344 344 343 343 341 341 341 327 308 311 324 343 341 341 341 341 341 339 341 317 312 309 304 300 300 309 313 311 311 312 315 332 334 336 331 329 330 326 323 324
310 310 309 309 309 310 310 311 314 311 311 311 314 317 318 319 319 320 322 325 326 328 328 329 331 335 336 335 335 335 333 316 298 301 299 298 315 334 336 335 337 338 340 343 344 344 344 341 342 343 343 343 312 306 307 325 341 340 340 339 339 339 340 341 340 332 305 305 301 298 299 304 307 305 306 308 310 322 336 328 330 330 326 325 322
312 312 311 310 309 311 310 309 309 311 310 312 313 313 314 316 318 320 320 320 319 322 323 326 329 330 331 333 330 330 334 323 298 301 298 298 310 334 335 335 335 337 338 339 342 342 343 341 336 336 341 336 305 306 304 326 341 341 339 339 337 338 340 342 340 337 335 335 335 333 326 318 331 336 332 305 307 321 338 335 333 329 325 324 324
309 312 313 313 312 312 313 312 311 310 310 312 312 312 313 315 316 317 317 317 318 317 316 318 321 327 329 330 331 333 333 335 326 298 298 297 300 328 333 332 332 336 338 337 338 340 341 343 336 314 310 311 303 301 304 310 338 342 341 337 337 336 339 341 341 339 337 335 337 337 337 338 336 337 338 332 328 331 336 337 335 331 328 326 326
312 312 313 314 315 314 314 313 313 313 312 312 313 312 312 312 312 313 314 315 316 317 319 319 318 319 323 326 329 330 331 331 327 297 298 297 297 304 327 331 332 331 334 335 335 337 338 339 342 319 308 308 303 298 301 303 316 342 342 340 340 338 329 336 337 333 339 338 338 339 338 339 338 338 336 336 333 333 333 336 338 335 330 327 325
313 313 313 313 313 314 315 316 317 315 314 314 313 313 313 313 312 313 311 311 313 313 315 316 318 319 319 319 324 327 330 327 329 305 301 298 297 295 320 329 328 328 328 328 330 335 337 339 341 323 304 306 305 301 299 301 302 336 341 318 316 313 334 333 335 335 336 338 337 334 334 336 337 335 334 335 333 332 335 335 337 338 336 332 329
311 312 312 312 313 314 315 317 317 317 317 316 315 314 314 314 314 313 313 313 314 313 313 314 314 314 318 322 320 321 326 329 315 326 304 301 297 295 298 311 308 322 326 327 329 330 335 338 339 323 300 302 303 302 300 299 303 322 314 309 309 307 319 336 334 334 337 334 334 331 335 335 335 334 334 334 334 336 335 337 337 338 338 335 333
310 310 312 313 313 313 315 317 316 316 317 317 315 315 314 314 313 313 312 311 311 311 311 313 313 312 313 314 318 320 322 323 313 310 320 300 299 297 296 295 296 315 323 326 329 330 329 329 321 298 302 299 300 300 300 301 313 307 304 304 303 308 334 331 330 332 330 331 332 335 335 335 334 332 332 335 336 336 337 338 337 338 337 336 333
309 311 312 313 314 314 314 313 314 315 317 317 316 314 314 314 311 312 313 311 310 310 309 310 309 310 310 313 314 315 318 320 324 316 304 306 299 298 296 294 296 294 313 322 323 326 311 298 297 298 299 300 298 298 299 301 300 302 302 301 313 328 330 331 331 331 331 330 332 332 335 335 334 334 337 337 336 338 338 337 338 338 337 336 336
305 305 305 306 308 310 310 311 312 313 315 315 316 315 314 313 311 310 311 311 310 309 309 308 307 308 308 310 311 316 318 318 319 325 316 314 308 298 297 296 300 300 305 315 304 298 297 299 299 300 305 308 312 316 321 321 301 299 299 304 319 324 328 329 330 329 330 332 333 331 332 335 335 337 337 337 337 336 335 335 335 334 334 332 331
305 305 306 306 306 307 307 307 308 311 315 314 313 312 311 312 312 309 309 309 309 309 309 308 308 307 308 309 310 310 315 318 318 319 321 324 326 325 318 319 305 300 311 320 312 314 313 308 313 307 306 304 307 310 314 314 314 314 313 314 317 323 327 329 330 331 331 333 330 331 334 335 337 336 335 335 335 336 337 333 333 332 331 330 328
304 304 304 305 305 305 305 306 308 307 307 308 310 312 311 310 309 308 308 308 308 308 308 307 307 309 309 310 310 309 309 313 318 320 320 316 315 316 319 320 323 324 324 326 327 326 324 315 312 317 320 321 321 320 322 324 322 321 325 322 319 321 324 326 328 333 333 332 332 334 332 334 333 333 334 335 334 332 335 332 331 330 328 330 326
303 305 306 305 304 305 306 307 306 305 306 308 308 309 309 309 309 311 312 312 311 309 309 308 309 311 311 310 310 310 311 311 322 303 315 301 313 315 315 316 318 318 315 299 316 319 321 321 320 321 322 320 320 321 322 322 321 321 324 326 322 321 322 325 326 328 330 330 330 331 331 332 334 334 333 332 330 331 331 331 333 332 329 329 326
304 304 303 303 303 304 306 306 306 306 306 306 307 309 301 300 305 308 307 304 300 300 299 306 308 309 310 312 314 311 312 314 297 295 299 299 298 296 298 297 297 305 302 295 303 315 317 319 320 320 320 322 322 321 322 322 322 321 321 313 321 321 321 323 326 328 330 329 331 331 330 330 332 333 332 330 332 331 329 321 331 331 326 326 325
303 303 302 302 301 303 304 305 306 306 306 306 307 306 307 312 296 297 299 300 301 297 297 298 297 297 310 309 310 303 303 303 301 300 296 295 295 295 295 295 294 294 294 305 312 315 316 317 319 320 320 321 321 322 322 323 322 322 323 322 321 320 317 322 325 325 326 327 329 329 328 328 329 330 330 330 330 331 330 329 330 331 327 326 325
302 302 302 303 303 304 304 305 306 305 305 306 306 305 305 305 307 299 295 297 297 297 297 296 296 296 295 301 310 311 304 299 298 299 297 294 294 294 294 293 294 293 294 294 307 312 315 316 318 320 322 321 321 321 323 325 325 325 325 325 322 321 320 322 325 327 327 327 327 326 329 328 328 328 328 328 326 329 329 327 327 327 326 326 326
304 304 304 304 304 304 303 304 304 305 305 305 305 306 304 305 303 305 307 294 294 296 296 296 295 296 296 296 296 299 301 303 299 296 296 296 294 294 293 293 293 293 292 301 310 313 316 316 317 319 321 322 323 324 325 326 327 327 327 326 325 324 323 325 324 326 325 327 328 328 329 329 328 326 323 326 327 328 329 326 326 325 326 326 324
306 306 305 305 305 305 305 305 305 305 306 306 305 305 305 305 305 304 304 305 307 299 294 293 294 295 294 295 296 296 296 297 297 296 296 295 294 293 293 298 295 294 298 309 312 313 314 315 316 318 320 322 324 324 323 324 325 326 326 327 327 328 327 327 326 324 324 325 327 328 328 330 327 328 329 330 329 330 329 326 327 325 325 325 325
306 300 297 299 305 304 305 305 305 305 305 306 305 304 305 305 305 304 304 303 303 303 305 307 298 293 301 298 295 294 295 294 295 296 295 295 294 293 292 305 310 308 303 305 310 313 313 315 314 315 318 321 322 323 325 326 326 326 326 327 327 328 328 326 324 325 325 327 327 327 329 329 332 328 328 329 329 328 328 328 327 326 326 325 325
305 305 305 304 306 306 306 305 305 305 305 305 306 305 305 305 304 304 303 305 304 304 305 307 309 298 293 297 297 295 294 294 294 294 294 294 293 293 305 309 310 310 310 313 314 313 313 314 314 315 317 319 322 324 325 325 326 327 328 327 325 327 327 327 324 324 325 327 326 326 325 330 330 329 331 330 330 328 328 327 326 326 325 326 326
306 305 305 305 306 306 306 307 307 307 299 303 304 305 305 304 305 305 304 304 305 305 305 306 307 311 300 299 301 295 293 293 293 293 293 293 292 298 307 310 310 310 309 310 311 313 315 315 315 316 316 317 320 322 323 325 326 327 322 327 328 327 327 327 327 320 325 325 327 327 328 329 331 332 330 328 327 327 327 329 326 321 321 320 312
307 307 307 308 308 308 307 307 307 298 304 306 306 305 303 304 305 303 304 304 305 305 305 305 303 305 306 308 310 307 304 293 292 292 293 293 294 302 307 308 310 310 310 310 312 313 313 316 316 316 317 318 319 322 322 324 325 326 327 328 327 326 316 323 312 325 325 326 327 327 327 328 331 332 322 329 327 326 324 325 325 326 324 316 319
308 300 295 294 297 306 306 305 305 306 306 307 306 305 303 304 303 303 304 304 304 305 306 308 308 307 307 308 310 313 306 308 306 308 309 309 309 309 309 310 310 310 311 312 312 312 313 313 314 317 317 318 320 322 322 323 325 325 327 327 327 327 326 325 325 324 323 324 326 328 328 329 330 330 330 330 328 327 326 325 325 326 325 324 324
306 307 301 294 302 303 304 303 305 305 305 306 305 306 306 305 305 305 305 304 304 305 306 305 306 308 309 310 310 311 309 308 309 310 310 310 312 313 313 312 312 311 312 313 314 314 316 316 316 316 317 320 321 322 323 324 325 324 325 326 326 326 326 326 325 324 323 324 325 326 328 329 329 329 329 328 327 327 325 323 324 325 327 325 324
307 307 300 299 299 306 304 305 306 305 307 306 306 307 306 306 307 305 307 307 307 307 307 308 307 309 308 305 301 303 310 309 310 310 308 309 310 310 312 313 312 312 312 312 313 315 317 318 318 319 319 319 321 322 323 323 323 324 326 325 326 324 325 326 325 324 325 323 324 325 327 327 323 324 320 323 316 321 323 323 324 322 324 324 326
306 306 306 305 306 305 305 303 304 305 303 305 306 306 302 303 305 307 304 304 303 306 307 308 309 310 307 300 299 298 307 310 310 310 311 311 311 312 310 312 313 313 314 315 316 316 316 317 318 319 320 321 322 322 323 323 323 324 324 324 325 324 324 325 325 325 325 325 324 325 325 321 314 314 320 312 323 324 325 324 326 325 326 326 323
302 302 302 303 303 303 304 304 304 305 304 304 303 299 302 304 305 305 305 304 305 305 305 305 306 308 306 300 299 293 308 309 301 305 308 308 309 308 309 311 313 315 316 316 316 317 317 317 318 320 320 322 323 324 323 324 325 325 325 324 324 323 324 323 324 325 325 325 324 320 323 319 314 318 322 316 323 323 324 325 323 325 325 325 321
300 300 299 300 300 300 301 302 302 301 303 300 300 303 305 303 304 304 304 304 304 305 305 305 306 306 308 308 300 304 307 308 308 309 308 308 309 310 311 310 309 309 308 307 307 308 313 316 319 319 320 321 322 324 323 323 325 325 325 325 322 319 323 323 323 324 324 323 323 320 323 316 313 316 313 312 319 317 317 322 321 321 321 323 321
298 298 297 298 297 297 297 298 298 298 296 298 300 302 301 303 304 304 304 303 303 304 305 305 305 305 305 306 307 306 307 308 302 303 302 302 303 302 302 301 300 300 299 298 299 299 298 299 301 303 304 306 305 305 306 308 311 315 320 324 326 321 322 324 325 327 326 323 320 320 319 316 318 317 313 313 311 313 308 312 312 305 307 309 312
296 297 296 296 295 296 296 297 295 297 298 299 300 301 302 303 303 303 302 303 302 303 304 304 306 304 303 302 300 298 299 299 297 296 296 297 296 295 295 294 293 293 292 293 293 294 293 293 293 294 294 294 295 295 297 299 302 304 306 313 319 323 322 319 320 323 323 324 324 322 320 317 318 311 307 312 311 312 311 311 311 306 306 304 305
296 295 295 295 294 294 293 294 294 294 295 295 296 299 300 302 304 303 300 300 301 298 298 297 296 296 295 295 294 294 293 293 293 293 292 291 291 291 290 290 290 289 289 289 289 289 289 289 289 290 290 290 290 291 292 293 296 297 297 300 306 310 310 312 314 315 313 310 308 308 307 305 306 304 301 304 304 305 303 304 302 302 301 298 297
295 295 294 294 294 294 293 294 293 290 293 293 293 292 292 293 293 293 294 293 293 293 293 293 292 292 291 291 291 291 290 290 289 289 289 288 288 288 288 288 287 287 287 287 287 287 287 287 287 287 288 289 289 290 290 291 291 292 294 296 299 302 302 301 308 307 306 305 305 303 302 301 301 300 299 300 299 298 297 297 297 297 296 294 295
294 294 294 294 293 293 293 293 292 292 292 292 291 291 291 291 291 292 291 292 292 292 292 291 290 290 290 290 290 290 289 288 288 288 287 287 287 287 287 287 286 286 286 285 285 285 285 285 286 286 286 287 288 288 289 290 290 291 291 292 292 289 291 293 298 302 299 304 303 302 302 300 299 297 295 296 295 295 294 294 293 293 294 294 294
293 293 293 293 292 293 293 293 293 293 292 291 291 291 290 290 290 290 291 291 291 291 291 291 290 290 290 289 289 289 289 288 287 287 287 287 287 286 286 286 286 286 285 285 285 285 285 285 285 285 285 285 285 286 287 288 289 291 291 290 288 288 290 290 292 293 300 302 301 300 298 298 297 297 296 297 296 296 293 291 291 291 292 294 293
292 292 292 291 292 292 292 292 292 292 292 291 291 291 290 291 291 291 291 290 290 290 290 290 289 289 288 288 287 287 287 287 287 286 286 286 286 286 286 286 285 285 285 285 285 285 285 285 284 284 284 284 285 285 285 286 287 288 288 287 288 288 288 289 293 291 292 295 299 298 296 295 294 293 293 293 293 293 290 291 291 291 291 291 292
Wind_Speed
16 15 12 13 14 14 13 13 12 11 12 12 12 11 11 11 11 10 10 10 10 11 12 12 12 12 11 11 11 10 9 9 9 9 8 9 8 8 8 9 10 8 8 9 8 7 8 9 9 10 8 8 8 8 8 8 8 7 6 6 6 6 6 6 6 7 4 5 4 2 8 9 8 8 8 7 8 6 4 6 8 6 6 6 6
14 12 10 11 11 12 12 10 9 11 12 11 10 10 10 10 11 11 11 11 11 12 12 11 11 11 12 12 11 11 12 11 10 9 9 9 9 7 8 9 9 9 9 9 9 7 7 8 9 9 8 9 8 9 7 8 8 7 7 7 7 7 7 6 7 7 10 5 4 5 6 9 8 8 8 8 8 8 7 6 6 5 4 5 5
10 9 9 9 11 12 11 9 9 9 9 9 11 11 10 10 10 11 11 10 10 10 11 11 12 13 12 11 11 11 11 11 10 10 10 10 10 9 9 10 10 9 9 9 9 8 8 8 9 8 7 9 9 7 7 9 8 8 8 7 7 7 7 7 6 6 9 10 10 10 9 8 7 8 8 7 6 7 8 7 5 4 3 3 5
9 11 9 5 7 9 9 9 10 11 11 9 9 10 8 7 8 9 10 10 10 10 10 10 11 11 11 11 11 11 12 11 11 10 11 10 10 11 10 9 9 9 9 9 9 9 9 9 8 9 9 9 9 7 9 10 7 7 8 7 7 8 7 8 7 6 6 8 9 10 9 9 7 8 7 7 7 7 6 6 5 5 5 4 4
6 6 5 8 9 8 8 9 10 10 10 9 10 10 8 5 4 7 8 9 9 9 9 10 11 11 11 12 12 12 12 12 11 11 10 10 10 10 9 9 9 9 10 10 9 9 9 8 9 9 9 8 8 9 8 9 8 7 7 8 8 7 7 7 7 7 7 9 9 5 3 1 5 8 7 8 7 6 6 6 6 6 5 5 5
4 6 6 9 9 8 8 9 9 10 9 9 10 10 9 9 7 5 5 6 8 9 9 9 9 11 11 12 12 11 11 11 11 11 11 11 9 9 8 8 9 9 9 9 9 9 9 9 8 8 9 8 8 7 7 8 8 8 8 8 7 7 8 7 7 8 7 8 9 8 5 8 6 8 9 8 7 7 7 6 5 5 6 5 5
1 3 3 4 3 5 6 6 6 7 7 7 8 8 9 9 10 9 8 8 8 8 9 10 9 10 11 11 11 11 11 11 11 11 11 10 10 9 9 9 9 8 8 9 9 9 9 8 8 7 9 9 9 8 8 8 7 7 9 8 8 8 8 7 8 9 8 8 8 10 7 6 7 8 9 8 7 7 8 7 6 6 6 5 5
5 4 4 2 1 2 2 2 4 5 6 7 7 7 7 7 8 8 9 10 10 10 10 10 9 9 9 10 10 10 11 11 11 10 10 9 9 8 8 7 8 8 8 8 8 8 8 8 8 8 9 9 9 8 8 7 5 7 9 8 8 8 8 8 8 9 8 9 8 9 9 6 8 9 7 8 8 7 7 7 7 6 6 5 5
8 8 7 5 4 1 2 2 3 5 6 7 7 8 9 8 7 7 7 8 8 10 10 10 9 9 9 9 10 9 9 9 9 9 9 9 9 8 8 8 8 7 7 7 8 8 8 8 8 8 8 8 10 8 7 6 8 10 9 8 8 8 8 8 9 9 9 9 9 8 6 6 9 9 9 9 10 9 7 6 6 6 6 6 5
9 9 9 8 6 4 1 3 3 3 4 5 7 8 8 8 8 8 9 9 8 8 10 10 10 10 9 8 8 7 8 7 6 5 3 7 9 8 8 8 8 7 6 7 7 8 8 8 7 9 10 11 10 10 7 6 4 5 4 6 7 5 8 9 9 9 9 10 10 9 11 12 12 10 10 10 9 7 8 7 7 6 6 5 5
7 7 7 6 6 5 3 1 4 4 4 4 5 6 7 7 7 8 8 8 9 8 8 10 11 10 10 9 9 8 7 7 8 8 6 4 5 8 8 8 8 7 6 6 7 7 8 8 8 9 10 11 11 11 10 9 7 9 6 4 5 9 11 9 9 9 11 11 10 10 10 10 10 10 10 10 9 9 8 8 6 6 7 6 6
2 3 5 4 3 2 2 2 1 4 4 4 5 5 7 6 7 7 7 8 7 7 8 9 10 9 8 10 10 9 9 8 12 11 9 9 7 7 7 7 7 8 8 8 7 7 7 8 8 7 9 11 11 11 10 10 11 10 9 8 9 10 7 4 4 7 11 9 9 6 8 10 10 10 9 9 9 9 8 8 8 8 7 7 5
4 3 2 5 2 2 3 3 4 2 3 3 2 4 4 5 5 6 6 6 7 7 8 8 8 9 8 9 9 10 10 10 13 12 12 12 12 9 7 8 8 8 8 9 9 8 7 7 8 7 7 13 12 11 12 12 13 13 11 8 7 7 11 11 4 3 6 8 8 8 10 9 11 10 10 10 9 10 9 9 8 8 7 7 6
5 4 3 2 2 0 2 2 3 4 3 2 3 3 3 4 4 3 3 4 5 6 7 7 7 8 8 9 8 8 9 9 13 13 12 13 13 10 9 8 9 9 9 10 9 9 9 8 8 8 8 9 10 10 10 10 9 9 9 8 9 10 11 11 12 8 6 6 7 7 7 8 9 10 11 9 10 10 9 9 9 8 8 7 7
6 4 3 2 2 3 1 3 4 4 3 3 2 3 4 3 3 4 4 3 4 4 6 8 8 8 8 8 8 7 6 8 12 13 12 12 11 9 9 9 9 9 9 10 10 10 11 9 9 9 8 9 8 10 11 10 10 9 11 12 11 10 10 10 9 9 8 8 6 7 9 9 1 7 4 8 8 8 8 9 9 9 8 6 3
7 5 4 3 2 1 1 2 3 4 4 3 3 4 4 3 2 2 2 4 4 3 4 5 6 7 7 7 6 6 5 10 10 11 12 11 10 7 10 10 10 10 10 11 11 10 11 11 10 10 9 9 9 11 10 9 10 10 10 10 10 10 9 8 8 9 5 4 7 9 11 5 6 8 6 6 6 4 6 7 8 7 8 7 8
8 8 8 7 6 5 3 2 2 3 4 4 4 4 5 4 3 1 2 2 2 3 3 4 4 4 5 5 5 7 8 6 10 11 11 11 9 9 10 10 10 11 10 10 10 10 10 11 11 10 11 11 11 15 12 9 9 10 10 9 9 8 9 7 8 9 5 5 10 10 3 7 10 10 11 8 7 6 6 8 9 9 9 10 9
10 10 9 8 7 6 5 4 3 3 2 3 3 3 4 4 4 2 2 2 2 0 2 2 2 3 3 3 2 4 6 7 9 9 10 12 11 10 10 10 10 9 10 10 10 10 11 12 12 12 11 11 13 16 16 12 11 11 10 10 10 10 9 8 5 4 7 6 5 4 4 2 8 10 11 12 10 6 8 10 9 9 10 9 9
6 7 8 8 7 7 6 6 4 4 4 3 2 3 3 4 4 3 2 2 2 1 1 1 1 2 2 1 3 3 5 5 9 10 10 12 9 9 9 9 9 10 10 10 10 9 9 10 12 12 11 9 16 16 17 15 12 10 11 10 11 12 10 10 9 9 7 8 8 5 3 2 3 6 6 9 11 8 10 10 9 10 10 10 9
10 8 7 8 7 6 5 6 5 5 5 4 2 2 2 3 3 3 1 1 2 2 1 1 1 1 1 3 3 4 4 2 6 8 9 10 11 6 7 7 10 10 9 9 9 10 10 9 11 17 16 9 10 15 17 16 12 11 10 11 12 11 10 9 10 9 10 11 10 11 11 9 8 7 7 7 8 10 11 11 10 10 10 10 9
7 7 7 6 7 7 6 6 6 5 4 4 4 2 2 3 3 2 2 3 2 1 1 1 1 0 1 1 1 2 2 2 7 8 8 9 9 7 7 8 7 7 9 7 9 9 9 9 9 14 18 16 11 12 14 17 15 11 10 10 11 5 4 7 7 8 10 10 10 11 10 11 11 10 9 9 9 10 10 11 11 10 11 10 9
3 4 7 8 7 8 7 6 6 5 5 5 5 4 3 1 1 0 2 2 2 1 1 1 1 1 2 1 0 2 4 3 2 7 6 7 7 9 6 5 3 4 7 8 9 9 9 8 9 9 16 16 15 13 14 14 16 11 12 13 12 9 7 7 7 10 12 8 9 11 11 11 11 12 11 12 11 10 10 10 10 10 10 10 9
4 4 6 8 9 9 8 8 7 6 6 6 5 4 3 3 2 1 1 1 0 2 2 1 2 2 2 2 1 1 1 6 4 2 6 5 7 7 8 7 7 5 6 8 10 10 9 8 7 4 8 13 14 14 14 15 12 11 15 12 12 9 7 7 5 8 6 9 10 11 11 11 11 11 11 11 11 11 11 11 11 11 9 10 9
7 6 6 7 7 7 8 9 9 7 7 7 6 5 5 4 3 3 2 2 2 2 2 2 3 3 3 2 2 2 2 1 8 5 3 6 7 7 7 9 7 5 6 6 6 4 7 10 7 14 10 8 12 13 14 13 10 15 15 14 10 2 3 5 6 7 6 12 11 11 11 11 11 12 12 12 10 10 11 11 11 11 10 9 9
5 4 5 6 7 7 8 8 8 8 8 8 7 6 6 6 5 4 4 4 3 4 3 4 3 3 3 3 3 3 3 3 3 9 9 8 8 7 7 7 8 5 3 6 7 7 6 9 11 10 11 8 9 10 11 13 17 15 14 13 9 4 8 9 9 8 10 12 10 11 12 11 11 11 10 12 12 12 11 9 9 10 10 10 8
6 6 5 4 5 6 7 7 7 7 7 7 7 6 6 7 6 5 5 4 4 4 5 5 5 5 4 4 4 3 3 3 4 5 8 8 7 8 10 8 7 6 6 5 8 11 13 14 14 14 10 4 3 4 6 7 11 13 12 11 9 9 9 9 10 11 11 11 11 10 12 11 11 10 11 10 11 11 11 11 10 10 9 9 8
6 5 6 6 7 7 8 7 6 6 7 7 7 7 6 6 6 6 6 5 5 5 5 5 6 6 4 4 4 4 4 4 4 3 3 3 4 7 6 4 6 3 3 3 3 3 5 7 7 9 10 8 6 8 9 7 7 8 8 8 9 9 9 10 11 11 10 9 9 11 12 10 10 10 11 12 11 11 12 12 11 10 9 10 10
5 5 6 7 7 8 8 7 6 7 8 7 7 7 7 6 6 6 6 5 5 5 5 5 5 5 6 5 5 4 4 4 4 4 3 3 4 4 3 3 2 3 5 5 4 4 5 4 6 6 6 7 7 6 6 7 8 9 9 9 10 9 10 12 12 11 12 11 11 9 11 11 11 11 11 11 12 12 11 12 12 12 11 11 11
6 7 7 7 7 7 7 8 8 8 8 7 7 7 7 7 6 6 5 5 5 4 4 5 5 5 6 7 6 6 4 3 6 10 8 6 3 5 5 4 5 5 6 12 8 6 5 6 6 7 6 7 7 7 8 8 7 9 10 9 8 10 9 9 12 15 16 12 11 12 12 12 11 11 11 12 12 12 12 11 11 11 11 12 12
7 7 7 7 8 8 8 8 8 8 8 8 8 8 8 10 9 8 8 6 9 7 7 7 6 5 6 6 6 7 6 2 10 7 4 2 2 3 4 3 5 7 10 11 6 5 6 6 7 6 6 6 7 8 8 8 9 9 8 9 9 9 9 10 12 14 14 14 12 12 12 11 12 12 12 13 12 12 12 12 12 12 13 12 13
6 6 6 7 8 9 9 8 8 9 9 9 9 10 9 8 16 16 14 10 14 15 14 15 13 11 8 7 6 2 1 6 9 6 6 5 5 6 6 6 6 6 5 6 5 5 6 6 7 8 7 7 8 9 9 9 9 10 10 10 10 9 9 10 12 12 14 15 13 13 12 12 13 12 13 13 13 12 12 12 12 12 14 13 14
7 7 8 8 8 9 9 10 10 10 10 10 10 10 10 10 7 15 18 15 16 17 17 16 16 15 15 12 9 7 8 8 9 11 9 6 8 7 7 6 5 5 4 2 4 6 7 8 8 8 8 9 8 8 9 9 10 11 11 11 11 11 11 11 12 13 13 14 13 13 12 13 13 13 13 13 13 13 13 12 13 13 13 13 13
9 9 8 8 9 10 10 10 11 11 11 11 11 11 11 10 11 8 10 15 15 16 17 16 17 17 17 16 16 14 12 6 6 6 8 8 7 7 6 6 8 8 4 4 6 8 8 8 9 8 8 9 9 10 10 11 11 11 12 13 13 13 13 14 12 12 12 13 13 14 14 13 13 13 12 13 14 14 13 14 13 13 13 13 14
9 9 8 8 9 9 9 9 10 10 10 11 10 11 10 10 10 10 10 6 8 9 9 11 13 13 14 15 16 16 16 17 15 14 12 13 12 6 5 6 8 11 10 7 8 9 8 9 9 9 9 10 10 10 10 11 11 11 12 12 12 12 13 14 14 14 12 11 13 14 15 15 15 14 13 14 13 14 13 14 14 14 14 14 14
9 10 11 10 10 11 10 10 11 11 11 10 11 11 11 10 10 11 10 10 11 10 7 9 14 18 14 13 14 16 16 17 17 16 17 16 13 4 4 6 8 8 9 9 9 9 9 9 9 10 10 10 10 11 11 12 12 12 12 12 13 13 12 12 14 14 13 14 15 15 15 15 14 12 11 13 14 14 14 14 15 15 14 14 14
11 11 11 10 9 10 10 11 12 12 11 11 11 11 11 11 11 11 11 11 11 10 9 10 8 13 20 15 15 18 18 18 18 18 18 17 10 7 6 9 10 10 10 9 9 10 10 10 10 10 10 11 11 11 12 12 13 12 12 13 12 11 13 12 12 13 14 15 15 15 16 15 12 14 16 15 15 15 14 14 14 14 15 14 14
12 12 12 12 13 12 12 11 11 11 12 12 12 12 12 12 11 11 12 12 12 11 12 10 10 5 9 7 13 15 18 18 19 19 17 14 8 8 8 10 10 10 10 10 10 9 10 10 10 11 11 11 11 12 12 12 12 13 13 12 11 12 12 11 10 11 14 15 16 15 15 16 16 16 15 14 13 13 14 13 13 12 12 14 11
13 12 12 12 12 12 12 12 12 12 12 13 13 13 14 14 13 13 13 12 11 12 12 12 10 12 11 8 15 11 10 13 8 5 6 6 7 9 10 11 11 11 11 11 11 11 11 11 10 11 11 11 12 12 12 12 12 12 12 13 12 12 11 10 7 13 14 14 15 15 14 16 16 13 12 14 14 14 13 13 14 13 11 12 12
14 15 14 12 12 13 13 14 13 13 12 12 12 13 13 14 14 14 14 13 14 13 12 11 11 11 11 10 7 10 12 9 9 11 11 12 11 11 10 10 10 11 11 11 11 11 12 12 11 11 11 11 12 12 12 12 12 13 13 13 14 11 9 11 12 14 14 14 14 15 16 16 15 15 16 14 14 14 13 12 13 15 15 15 15
14 14 12 13 11 12 12 13 13 13 14 13 13 13 13 13 13 14 14 14 14 14 13 13 13 11 10 8 9 10 12 12 11 10 10 10 10 11 11 11 11 11 10 10 10 10 11 12 12 12 12 12 12 12 12 13 13 13 13 13 13 12 10 10 12 14 14 15 15 15 15 14 14 12 11 14 13 10 13 16 15 15 15 16 15
14 13 12 13 12 12 14 14 14 13 12 12 13 13 13 14 14 12 12 12 12 11 12 12 12 11 11 9 3 4 10 11 11 10 9 10 10 10 10 10 11 12 11 11 11 10 10 11 11 12 12 12 11 12 12 12 12 12 13 12 12 10 8 9 12 14 14 13 14 13 11 11 10 10 9 8 9 10 12 13 13 13 12 13 14
12 13 13 12 12 13 14 14 13 13 15 15 14 13 11 12 13 13 12 14 13 12 11 11 11 10 8 5 8 11 10 12 12 12 11 11 10 9 9 11 11 10 11 11 11 11 11 11 11 11 11 11 11 11 12 13 12 12 11 11 13 14 13 14 13 11 13 12 13 13 12 10 7 9 11 9 11 12 12 13 14 15 17 13 12
7 8 8 8 9 10 11 11 12 13 14 15 14 14 15 14 15 16 14 14 15 14 13 12 12 11 10 5 6 6 6 10 11 11 12 11 12 12 11 11 10 10 11 11 11 11 11 11 11 10 11 11 11 11 12 12 12 12 12 10 10 12 14 13 12 11 13 12 14 13 13 12 9 11 12 10 12 12 12 12 12 16 14 11 9
6 5 5 5 5 5 5 6 8 8 10 11 11 10 10 12 12 14 15 15 14 13 13 13 13 13 11 10 4 6 9 11 12 12 13 12 11 9 7 4 5 6 7 7 8 8 8 9 10 10 10 10 11 10 8 8 8 10 11 11 10 11 13 12 13 15 13 11 11 11 13 10 10 10 10 9 11 10 10 12 11 9 9 8 9
7 7 6 6 5 5 6 6 7 8 7 9 11 11 11 12 14 13 12 12 12 13 13 11 10 10 10 11 10 8 7 5 6 7 6 6 4 5 4 5 5 5 6 6 7 7 6 6 7 8 8 7 6 7 7 7 7 7 8 8 9 9 9 12 13 11 8 9 8 9 9 9 11 11 10 10 8 8 5 7 8 7 6 6 9
8 7 8 7 8 8 8 8 8 8 8 11 12 13 13 13 14 12 10 9 8 9 9 8 6 3 4 5 5 5 5 4 4 5 5 5 5 5 5 5 5 5 5 5 5 6 7 6 6 6 7 7 7 6 6 6 6 6 7 8 8 7 2 1 2 5 8 9 9 9 9 9 9 8 8 9 8 9 10 9 9 8 10 9 10
10 8 9 8 9 8 7 8 8 7 7 8 6 4 8 8 5 4 1 2 3 5 6 8 7 6 5 6 6 6 6 6 5 5 6 6 6 6 6 6 6 6 7 7 7 7 8 8 8 7 8 8 8 8 7 6 6 6 6 7 7 2 3 3 3 4 4 5 6 5 4 3 3 2 2 3 3 4 5 7 7 11 9 8 9
10 11 10 10 10 10 10 9 9 11 10 10 10 12 12 12 12 11 10 10 10 8 8 9 9 8 8 7 7 7 7 7 7 6 6 6 6 6 7 7 7 7 8 9 9 9 9 9 9 9 9 9 9 8 9 8 7 7 7 7 7 4 2 3 5 6 6 6 6 8 8 7 6 6 6 7 6 4 3 2 3 5 8 9 8
9 10 9 9 9 9 10 10 10 10 10 10 11 13 13 12 12 12 11 11 10 9 8 8 8 9 9 9 8 8 8 8 8 8 8 7 7 7 8 8 9 9 8 9 9 10 10 11 11 11 10 9 9 10 10 9 8 8 8 7 9 10 10 9 6 6 8 8 8 8 9 10 10 9 10 10 9 8 8 8 7 3 2 10 12
11 13 12 12 11 10 10 12 12 10 10 12 11 11 11 12 12 12 12 12 10 9 8 9 8 8 7 7 7 8 7 9 9 9 9 9 9 8 8 9 10 10 10 10 9 9 10 10 11 11 12 11 11 11 10 10 10 10 9 9 14 15 13 13 13 9 7 7 9 9 10 11 11 10 9 9 10 11 11 9 9 7 5 3 8
11 11 13 13 12 11 11 11 12 13 14 14 12 11 11 11 11 11 11 11 11 11 10 9 9 9 9 9 8 8 9 9 8 7 8 8 7 7 8 8 9 10 10 10 10 10 10 10 10 11 11 12 13 13 11 11 11 11 13 16 18 20 18 14 10 13 14 12 11 10 11 12 11 11 10 10 10 10 10 10 9 10 8 6 7
Wind_Direction
197 204 197 191 195 205 206 207 203 206 206 203 204 203 202 201 199 200 204 205 203 200 195 187 184 187 187 184 192 183 188 188 185 188 192 193 192 192 192 200 205 205 206 203 208 205 204 204 199 203 197 202 204 204 206 204 205 203 192 193 193 201 202 205 215 144 180 156 151 157 167 161 162 150 152 143 152 153 154 140 150 178 175 160 141
210 202 196 195 199 206 199 188 204 205 203 200 209 208 206 203 201 202 205 205 204 203 200 191 187 191 190 191 188 175 195 187 183 188 191 195 191 192 198 204 208 210 209 209 201 201 209 202 204 202 201 206 207 210 208 209 206 202 197 196 197 194 200 207 215 180 168 131 176 182 182 173 160 171 161 154 156 148 156 156 165 186 177 153 154
230 215 209 197 200 205 193 188 197 203 202 205 207 211 205 204 204 205 208 206 205 205 202 198 193 197 195 191 188 185 184 184 186 191 195 196 196 195 200 204 208 210 210 210 206 202 201 203 205 198 199 209 207 213 219 221 209 210 204 199 200 194 191 214 211 206 168 175 187 175 184 181 184 173 166 158 158 154 164 146 168 169 165 183 137
343 324 321 302 234 209 188 185 194 200 205 202 205 211 211 214 211 214 213 208 204 205 205 200 199 197 194 193 190 188 187 186 189 195 197 196 200 200 200 203 209 214 216 212 210 208 210 207 203 200 199 205 204 200 216 218 212 216 212 202 203 194 197 197 219 214 185 158 201 178 173 172 182 168 177 152 160 174 162 139 160 171 169 141 131
240 247 256 260 241 212 197 191 190 195 202 202 203 199 204 215 229 232 224 216 212 208 207 206 202 199 195 195 195 193 191 188 188 191 194 199 201 200 201 204 210 217 219 218 213 211 208 211 207 200 196 203 208 207 211 213 212 215 216 208 203 197 193 200 198 214 205 185 183 105 38 16 201 174 175 166 170 167 137 152 173 161 148 164 147
210 242 213 206 217 213 202 193 190 195 197 203 201 198 192 191 190 202 229 224 209 209 212 204 205 206 199 199 199 197 195 193 194 192 196 197 202 204 204 206 212 216 216 220 215 211 211 208 208 205 195 202 209 211 216 214 217 218 217 211 207 196 198 196 203 202 208 200 182 126 196 162 217 188 177 178 171 165 163 165 170 161 158 175 157
73 249 238 259 241 213 209 201 188 185 191 200 205 203 203 201 199 200 205 218 216 211 210 212 206 211 210 206 204 202 199 198 197 196 197 196 201 203 204 208 211 211 216 216 216 213 212 210 206 198 198 200 206 209 209 213 219 228 218 217 208 207 201 201 201 201 205 205 197 150 183 194 198 191 185 179 182 178 171 169 173 175 163 176 164
9 349 330 359 223 175 176 186 187 197 191 199 198 192 193 206 207 205 202 203 212 216 211 211 214 214 215 217 213 207 202 200 198 196 200 200 198 202 202 207 209 209 209 212 212 211 209 210 203 200 200 196 205 208 206 201 212 222 227 217 214 211 207 201 201 204 200 208 203 172 176 176 209 202 173 180 182 191 191 182 179 174 175 174 182
11 6 351 357 4 45 115 154 167 173 190 187 192 192 196 205 209 202 201 210 211 214 213 212 214 217 220 221 221 216 213 206 203 199 199 200 195 196 203 204 206 206 206 208 208 205 205 203 203 200 198 194 198 205 204 222 206 209 213 212 222 217 214 203 204 207 204 208 206 163 166 189 219 176 186 186 192 191 188 195 198 176 184 180 186
11 1 356 350 344 337 96 129 157 152 175 186 188 190 189 195 204 206 199 198 206 219 219 215 211 212 215 217 220 219 218 217 200 191 222 206 193 195 197 200 204 209 211 211 209 210 209 210 205 202 184 186 191 201 190 207 238 276 239 215 227 220 233 218 208 208 210 208 211 192 180 193 203 184 189 194 192 191 186 192 210 177 193 193 175
4 358 349 341 343 339 345 130 145 150 149 164 172 180 195 197 205 206 205 198 196 205 221 217 213 209 210 211 212 213 210 210 151 156 186 286 242 198 199 199 199 200 207 219 223 217 219 219 214 191 191 187 192 193 201 210 220 229 243 244 227 226 222 214 217 214 211 212 210 211 206 200 199 187 197 189 191 196 189 190 206 179 198 199 197
9 3 338 332 324 354 359 328 120 118 132 147 164 167 170 185 200 207 205 202 203 201 206 216 214 212 215 216 214 214 212 189 155 167 182 202 239 226 202 207 200 200 200 207 214 220 222 222 222 208 205 208 208 197 204 209 214 229 244 253 273 290 300 275 205 234 228 222 221 220 212 204 198 194 194 189 189 195 193 193 197 196 192 204 224
152 147 256 299 340 7 49 30 22 38 103 119 115 140 146 157 179 195 204 211 205 207 209 211 214 214 214 221 221 215 220 169 167 175 185 197 211 237 224 211 208 202 200 203 209 212 218 217 220 222 208 203 215 212 204 200 207 215 213 226 252 266 284 281 248 215 317 291 250 199 224 209 206 197 194 193 186 189 192 196 198 200 199 203 226
149 147 164 253 304 316 112 110 87 72 48 80 136 119 124 117 136 163 163 199 214 216 212 212 219 219 217 220 222 226 229 164 174 178 189 196 205 214 234 225 219 214 205 203 204 207 207 215 222 216 219 209 214 217 213 201 193 197 207 215 219 215 220 244 268 261 228 240 259 270 230 214 217 201 191 192 189 192 194 197 194 200 204 203 218
136 140 158 105 335 331 38 82 89 86 81 74 62 106 108 118 140 137 145 162 185 208 220 222 218 218 222 226 221 222 231 145 175 178 188 193 199 205 226 232 227 220 217 210 207 203 202 205 213 224 219 215 215 217 217 210 198 204 212 210 220 220 214 212 214 229 225 229 231 224 273 247 110 23 328 185 187 205 197 203 197 198 200 203 189
139 148 154 160 157 262 358 63 97 104 103 104 106 104 106 102 112 129 144 149 157 175 199 225 226 227 223 222 232 237 224 155 173 181 185 190 172 198 221 228 227 223 216 215 213 209 206 203 206 212 218 222 206 208 226 224 211 211 211 209 216 221 226 227 194 192 220 250 228 217 225 225 126 162 162 186 172 196 196 210 205 198 201 192 204
164 170 168 165 164 159 144 108 63 81 104 116 110 106 106 100 92 94 137 153 169 174 177 196 214 222 225 230 216 227 240 183 174 181 188 172 170 213 217 220 225 224 222 217 214 216 213 208 207 208 209 219 191 181 199 228 223 223 224 221 219 222 226 213 136 152 140 79 33 17 8 159 148 142 139 147 184 175 209 205 204 198 198 203 203
176 175 169 166 156 158 156 147 147 111 91 91 99 105 108 107 96 83 94 110 109 51 245 221 204 203 208 233 247 247 232 217 185 185 175 171 194 218 218 217 224 227 226 220 219 217 217 213 221 214 211 214 171 177 185 197 221 225 227 225 223 225 222 211 165 135 105 94 78 62 5 7 170 170 169 171 187 193 201 213 199 200 207 212 208
173 163 154 152 161 161 156 147 144 127 115 103 99 99 99 100 107 123 117 114 105 148 270 192 228 227 197 216 85 281 250 188 189 176 174 183 199 232 223 219 221 223 226 221 218 221 220 205 207 229 230 213 165 180 181 190 213 222 227 231 233 228 221 212 197 196 200 212 209 196 184 158 188 197 184 188 199 198 209 223 212 209 211 211 216
173 173 168 160 161 152 164 155 161 153 138 134 110 85 85 85 84 81 53 90 92 60 355 49 329 310 229 259 227 226 248 214 156 165 170 183 206 238 268 246 233 224 227 229 219 218 219 221 191 205 226 240 170 184 181 192 207 214 222 230 237 236 230 226 213 200 212 216 209 200 205 192 194 202 193 190 206 212 213 220 227 215 217 217 216
176 175 174 172 166 169 173 176 175 171 155 150 144 137 94 79 63 54 60 62 39 71 92 313 314 286 164 216 224 240 249 237 140 156 164 188 202 204 242 248 250 248 243 239 244 229 220 218 231 194 202 217 189 186 195 197 205 214 212 224 227 241 15 262 232 233 221 202 208 203 199 199 201 199 197 197 199 205 213 223 228 224 221 223 215
210 211 189 185 185 182 182 183 185 184 181 174 172 167 154 151 109 76 25 35 36 21 339 284 248 262 293 294 191 234 138 186 223 141 158 190 199 204 238 254 284 290 289 262 260 259 241 229 234 193 190 203 208 188 195 204 212 222 222 216 220 188 160 243 244 223 223 202 207 213 206 203 202 210 211 210 204 197 204 209 221 225 219 230 228
300 257 215 215 198 192 189 189 189 192 192 191 193 191 180 195 203 202 198 210 262 306 298 287 290 260 241 222 260 229 190 161 214 186 149 194 211 212 231 265 304 309 276 258 245 250 264 264 251 357 188 200 206 197 194 201 206 226 233 236 228 217 142 231 258 256 217 234 220 220 210 208 205 202 205 210 201 195 198 203 209 214 219 226 225
281 250 225 225 222 209 198 190 201 203 195 194 199 207 205 215 228 242 228 251 254 249 254 272 270 278 264 251 212 216 206 186 156 197 177 191 205 208 221 234 243 258 286 288 295 272 279 284 330 354 337 240 208 201 199 193 208 222 234 244 253 262 149 198 229 250 239 241 234 222 214 213 212 209 204 206 198 200 199 201 204 206 215 217 221
281 253 226 210 214 220 224 221 212 209 202 199 202 204 211 211 230 237 242 244 253 260 268 270 268 269 270 258 255 243 218 215 179 169 183 188 207 211 225 224 243 222 252 276 275 286 320 327 325 330 338 306 255 222 204 203 213 220 220 229 238 209 206 207 207 211 231 237 234 239 229 219 217 216 211 206 195 195 190 198 202 206 209 214 211
305 302 297 280 249 235 228 224 229 225 220 216 214 217 215 211 217 227 231 240 247 256 266 276 278 279 275 267 247 236 231 252 240 174 182 184 201 212 221 221 239 212 223 288 296 306 301 297 301 299 287 259 230 237 229 219 214 223 219 212 215 217 212 209 213 219 229 236 237 235 240 231 223 215 211 206 195 192 180 191 193 195 198 197 190
296 304 302 293 277 265 260 257 246 226 217 232 240 232 224 220 219 225 234 236 238 249 258 267 269 267 274 269 272 255 225 227 242 241 213 180 178 169 193 218 217 212 198 216 222 255 260 262 275 286 286 282 256 251 243 219 199 220 222 217 215 213 210 207 212 214 222 233 235 236 239 231 225 212 207 204 195 192 186 182 188 189 190 196 202
299 298 295 288 284 280 273 250 243 257 258 247 235 233 231 231 233 233 237 238 245 246 254 256 260 269 265 268 266 261 249 231 213 205 155 61 7 342 322 328 303 286 284 293 316 330 318 293 254 258 266 268 257 245 239 235 225 226 228 218 216 215 215 219 223 228 227 229 236 232 239 230 222 215 208 198 196 201 194 193 196 195 197 201 206
290 284 281 282 276 272 271 274 273 272 267 260 254 250 251 241 235 238 224 245 239 248 262 261 266 255 263 267 271 266 260 275 50 59 66 50 11 323 309 309 327 303 10 29 341 314 305 284 280 277 271 253 242 235 228 223 222 226 230 227 216 211 209 205 215 222 224 223 229 227 224 225 220 211 203 206 206 206 200 201 201 207 199 205 209
268 267 275 279 278 273 268 268 272 271 270 269 267 261 232 215 240 252 264 196 184 196 220 255 261 264 264 262 261 267 260 88 117 96 106 116 199 214 258 313 308 298 315 330 312 287 268 265 262 261 258 253 242 231 223 217 219 222 222 222 214 206 204 208 214 219 220 221 222 225 224 221 218 208 209 213 208 203 194 194 204 206 208 210 212
255 265 273 272 275 277 276 277 276 274 272 271 271 271 274 210 199 212 217 211 185 201 201 206 231 255 261 263 254 179 5 335 308 295 160 183 204 232 235 229 231 254 296 326 275 253 256 254 253 250 246 246 248 243 232 223 219 220 225 219 212 209 201 207 214 217 218 218 221 225 224 221 220 212 213 213 212 200 193 193 205 202 207 210 215
258 263 268 271 271 266 267 266 265 265 263 264 262 266 258 267 244 205 214 209 198 195 198 205 212 219 228 231 250 250 192 205 237 263 261 181 204 220 232 236 242 246 264 218 258 251 244 245 246 246 245 243 237 239 238 233 226 224 226 223 217 211 205 210 209 214 216 216 216 219 224 222 222 219 216 213 210 203 195 191 200 203 207 210 214
253 259 262 263 262 257 257 258 258 257 259 257 258 253 256 256 259 264 208 217 215 202 204 207 207 210 217 225 223 233 255 249 226 244 264 261 212 210 232 254 252 240 216 229 235 248 242 239 243 240 238 240 239 238 239 238 236 232 230 229 225 219 216 215 204 213 218 217 214 214 216 212 214 219 216 214 209 208 201 202 199 200 203 208 212
254 260 265 268 272 278 274 273 268 264 261 262 261 263 263 262 268 267 273 253 213 227 237 234 230 221 225 220 217 223 232 243 252 258 261 265 261 242 223 252 232 212 208 238 237 244 241 242 241 240 236 236 240 238 238 242 244 243 239 234 235 232 227 220 213 212 215 213 213 213 215 215 216 214 212 213 208 208 202 204 204 202 203 208 214
261 262 244 245 267 271 272 272 272 269 269 266 265 263 260 261 258 260 261 261 269 270 255 219 211 212 210 212 220 218 221 226 234 239 246 252 253 233 205 261 255 224 198 216 230 236 241 240 243 243 242 237 234 235 236 236 237 238 240 238 236 234 229 219 216 212 209 213 215 213 213 213 211 207 212 216 207 205 206 203 208 204 203 205 210
266 270 272 241 236 252 257 262 263 265 266 266 267 267 271 272 269 269 264 264 267 264 259 261 266 193 208 214 206 207 214 218 221 226 233 236 231 167 243 256 257 256 251 229 219 225 229 237 242 245 244 243 237 233 235 239 238 239 239 239 235 234 236 230 216 214 209 209 211 213 213 214 209 218 217 212 207 206 209 207 207 205 206 206 205
263 264 263 264 265 264 263 259 258 258 260 263 264 266 267 268 271 270 269 270 268 267 270 273 270 235 180 215 211 211 212 213 217 222 226 234 204 197 243 247 257 258 254 255 251 244 235 233 234 241 245 245 243 238 236 235 238 240 242 243 235 230 232 233 222 209 214 211 211 207 212 215 214 212 208 210 206 206 210 210 209 203 198 200 194
263 264 265 268 269 266 263 263 263 260 256 254 254 258 260 262 264 264 268 267 268 272 274 274 266 269 258 236 186 197 204 214 223 258 241 220 203 223 226 235 241 249 251 253 251 251 249 248 243 240 243 244 244 241 240 239 237 239 239 237 236 229 225 230 226 220 222 218 216 211 209 214 215 213 208 210 206 206 206 209 212 209 198 200 199
267 257 244 248 257 262 270 269 266 263 259 258 255 253 253 255 255 256 260 259 261 260 262 263 262 262 256 257 243 192 190 194 197 221 221 216 211 213 222 230 236 240 247 248 246 246 250 250 248 243 243 244 244 243 241 241 238 238 237 238 237 228 216 228 226 222 219 219 219 217 214 214 214 216 212 204 206 206 207 205 208 214 209 202 203
271 274 258 221 222 234 245 252 257 256 254 257 257 256 252 248 248 251 252 256 259 260 259 260 264 261 262 262 253 249 250 251 252 247 250 245 229 220 226 232 236 242 241 245 248 248 248 247 247 248 243 242 242 244 242 242 243 242 240 239 240 230 219 219 223 222 219 217 217 217 217 212 214 214 215 208 208 201 208 212 210 212 213 207 199
272 270 273 271 267 268 258 256 255 253 254 250 251 248 249 251 256 255 257 258 257 257 255 260 259 262 265 270 301 279 262 258 260 260 258 256 256 255 249 249 252 252 245 244 246 250 249 249 248 248 249 248 245 243 244 245 246 242 243 240 237 228 210 213 224 225 222 215 214 217 216 210 203 202 205 197 215 204 207 207 205 209 209 200 194
280 277 275 275 264 261 261 260 260 267 264 260 258 258 257 256 252 252 256 258 260 262 265 263 263 267 272 234 184 177 231 258 257 260 262 261 262 260 259 258 258 260 259 253 248 246 248 252 255 256 257 254 251 250 252 251 249 248 248 244 242 234 226 226 222 220 221 216 215 211 207 199 184 201 203 191 200 207 205 206 207 207 209 192 183
305 297 295 287 286 279 275 270 266 257 255 257 257 253 254 256 258 255 254 256 258 262 265 263 263 263 265 249 142 167 237 256 259 259 261 264 261 260 261 260 256 250 251 254 253 252 252 254 256 259 258 262 262 261 258 256 254 254 251 238 231 235 232 228 222 217 221 219 217 208 203 197 189 194 202 205 210 209 210 206 207 210 204 184 177
0 360 358 350 345 326 311 292 280 271 269 264 265 270 266 252 245 248 251 248 248 250 253 259 263 267 266 259 193 196 260 260 258 256 255 256 259 264 278 324 353 356 3 359 355 344 326 303 287 281 285 287 287 296 306 310 307 287 267 243 231 231 236 230 226 226 221 218 213 205 205 201 196 195 202 204 209 212 207 209 204 198 192 179 175
24 20 21 30 15 359 334 318 308 292 281 267 254 243 235 238 239 233 232 239 243 243 247 252 258 254 254 256 260 268 285 309 8 19 25 29 23 19 6 3 5 10 9 6 1 358 351 342 331 332 330 336 349 346 333 323 316 299 296 281 258 233 222 231 230 230 218 213 212 210 208 206 204 199 198 194 199 196 195 195 193 180 180 176 173
23 24 17 24 24 19 9 0 341 322 290 264 253 247 242 230 226 224 222 222 223 235 239 245 256 324 22 35 41 41 39 38 32 35 33 34 34 40 39 42 39 36 32 23 19 23 22 16 7 1 352 349 347 349 339 329 323 324 311 293 275 270 260 129 82 187 205 208 205 203 207 199 198 199 197 191 193 188 192 191 184 181 175 168 166
32 31 30 34 33 24 15 8 6 356 1 15 3 294 241 240 227 216 232 74 77 60 67 68 68 63 56 58 59 60 60 59 51 47 47 43 41 43 49 52 55 53 48 46 42 38 33 31 26 22 19 12 4 1 359 352 345 336 333 323 310 279 189 185 177 178 151 107 105 122 94 103 104 95 93 128 158 171 173 172 173 162 155 147 142
34 39 38 37 32 32 33 30 27 24 27 26 39 47 47 56 65 70 74 72 68 65 69 69 69 71 71 68 65 67 68 72 71 68 62 59 53 52 55 58 60 60 57 52 48 45 42 35 30 26 24 21 16 13 15 13 12 5 357 348 334 312 123 144 149 132 125 121 118 117 118 115 103 91 86 84 84 89 104 114 142 148 139 137 133
29 31 32 30 38 37 37 36 38 38 35 35 40 46 53 58 62 66 68 67 66 64 64 65 66 67 69 65 64 65 64 67 69 68 65 60 57 55 56 61 61 62 61 58 51 48 45 42 39 37 29 21 18 18 20 19 28 30 27 16 3 11 51 59 79 101 111 112 110 108 106 107 104 102 98 94 89 83 81 66 40 11 160 137 131
32 36 37 36 35 33 38 44 42 41 44 45 40 44 52 58 59 63 65 66 65 63 62 60 58 57 58 57 55 56 59 65 64 63 62 63 62 60 59 60 62 61 61 58 54 51 48 44 41 39 36 30 25 21 16 15 22 36 42 41 43 35 36 56 62 66 96 109 104 107 105 102 100 99 96 94 98 98 90 83 79 59 359 339 114
35 35 39 36 33 33 33 35 36 38 44 45 43 44 45 48 48 51 56 59 61 59 57 56 54 50 53 48 45 46 48 48 45 47 50 48 46 46 46 49 54 58 58 56 54 51 48 45 42 39 36 32 29 27 26 20 15 25 40 47 57 59 43 30 56 68 68 75 85 83 89 91 94 92 90 87 88 81 85 86 83 87 79 33 23